ATLAS 5 CENTAUR DEB, 43983

Orbit data source: Space-Track

ATLAS 5 CENTAUR DEB, 43983 is space debris in HEO originally from a launch on Wed, 17 Sep 2014 UTC launched from the Air Force Eastern Test Range (AFETR). Debris objects in space refer to the collection of defunct objects orbiting the Earth. Examples of debris include non-operational satellites, rocket bodies, and fragments generated from explosions, collisions, or faulty payload assembly.

Loading next visibility...
ATLAS 5 CENTAUR DEB details
Identifier
43983, 2014-055AN
Orbit
HEO
Last TLE update1 day ago
Origin
Flag of USULA (US)
ManufacturerUnknown
MissionSpacecraft
Bus & MotorUnknown
MassUnknown
Launch date (UTC)
2014-09-17 (10 years ago)
Launch vehicleUnknown
Launch site
Air Force Eastern Test Range (AFETR)
Object type
Payload
Rocket body
Debris
Shape & HBRUnknown
Radar Cross SectionSmall (<0.1 m²)

Expand to show TLE details & history

TLE from 1 day ago
0 ATLAS 5 CENTAUR DEB
1 43983U 14055AN  24359.98611007  .00000034  00000-0  00000-0 0  9994
2 43983  19.8924 172.2378 5009758 114.0921 305.2987  1.90081915 43740
Epoch: 2024-12-24T23:39Z
Definitive object data (Epoch: 2024-12-24T23:39:59.91Z)
Latitude-0.00004°
Longitude83.26773°
Altitude19,506.156 km
Speed4.04 km/s
True Right ascension11h 29m 00s
True Declination0° 00' 00"
Sunlit
Object was in daylight at TLE epoch
Visualization TLE readout
Latitude-16.43093°
Longitude28.51384°
Altitude34,402.485 km
Speed2.252 km/s
Apparent Right ascension07h 37m 24s
Apparent Declination-24° 13' 37"
Sunlit
Object is in daylight
Visualization observer readout
Local Sidereal Time09:21:27
Azimuth205.447° SW
Elevation21.423°
Doppler factor1
Orbital elements
Apogee altitude34,943.81 km
Perigee altitude7,360.027 km
Semi-major axis27,530.055 km
Eccentricity0.5009758
Inclination19.8924°
RAAN172.2378°
Arg. of periapsis114.0921°
True anomaly245.99943°
Mean anomaly305.2987°
Eccentric anomaly276.79662°
Mean motion0.47515 °/min
BSTARUnknown
Orbital period757.65 mins
Loading maneuver chart data...

ATLAS 5 CENTAUR DEB Visibility forecast

Observer location: undefined°, undefined

Span
Click to sort rows by Start time (UTC) header in descending order
Start Az.
Max El. time (UTC)
Max El. Az.
Max El.
End time (UTC)
End Az.
321 mins2024-12-26 10:00:21.114Z205.439° SW2024-12-26 14:39:21.114Z165.47° S37.493°2024-12-26 15:21:21.114Z96.169° ESE
218 mins2024-12-27 06:22:21.114Z220.327° SW2024-12-27 08:50:21.114Z215.19° SW12.858°2024-12-27 10:00:21.114Z218.912° SW
|